timestamp,wind_dir_avg,wind_spd_avg,wind_spd_max_dir,wind_spd_gust,battery_voltage,lat,long
2021-11-14 00:04:00+00:00,209.0,15.81,207.0,19.82,12.49,47.59359,-54.27349
2021-11-14 00:14:00+00:00,208.0,17.07,215.0,20.8,12.41,47.59359,-54.27349
2021-11-14 00:24:00+00:00,206.0,17.54,210.0,21.73,12.41,47.59359,-54.27349
2021-11-14 00:34:00+00:00,201.0,16.96,203.0,19.53,12.41,47.59359,-54.27349
2021-11-14 00:44:00+00:00,199.0,17.93,195.0,23.94,12.41,47.59359,-54.27349
2021-11-14 00:54:00+00:00,198.0,14.72,199.0,17.6,12.41,47.59359,-54.27349
2021-11-14 01:04:00+00:00,203.0,16.61,201.0,19.63,12.41,47.59359,-54.27349
2021-11-14 01:14:00+00:00,202.0,18.63,202.0,22.28,12.41,47.59359,-54.27349
2021-11-14 01:24:00+00:00,203.0,17.67,202.0,20.7,12.41,47.59359,-54.27349
2021-11-14 01:34:00+00:00,199.0,20.12,203.0,22.74,12.41,47.59359,-54.27349
2021-11-14 01:44:00+00:00,199.0,19.61,201.0,23.04,12.41,47.59359,-54.27349
2021-11-14 01:54:00+00:00,196.0,20.37,198.0,25.68,12.41,47.59359,-54.27349
2021-11-14 02:04:00+00:00,192.0,18.37,193.0,21.46,12.41,47.59359,-54.27349
2021-11-14 02:14:00+00:00,187.0,17.51,190.0,21.29,12.41,47.59359,-54.27349
2021-11-14 02:24:00+00:00,191.0,20.1,175.0,23.93,12.41,47.59359,-54.27349
2021-11-14 02:34:00+00:00,189.0,21.47,195.0,25.54,12.41,47.59359,-54.27349
2021-11-14 02:44:00+00:00,178.0,19.45,175.0,23.71,12.41,47.59359,-54.27349
2021-11-14 02:54:00+00:00,175.0,19.95,176.0,23.27,12.41,47.59359,-54.27349
2021-11-14 03:04:00+00:00,185.0,20.76,194.0,23.86,12.41,47.59359,-54.27349
2021-11-14 03:14:00+00:00,192.0,20.68,194.0,25.27,12.41,47.59359,-54.27349
2021-11-14 03:24:00+00:00,198.0,21.87,194.0,27.16,12.41,47.59359,-54.27349
2021-11-14 03:34:00+00:00,200.0,21.11,195.0,25.53,12.41,47.59359,-54.27349
2021-11-14 03:44:00+00:00,204.0,21.11,207.0,25.44,12.41,47.59359,-54.27349
2021-11-14 03:54:00+00:00,210.0,21.34,215.0,25.91,12.41,47.59359,-54.27349
2021-11-14 04:04:00+00:00,209.0,18.88,208.0,23.88,12.41,47.59359,-54.27349
2021-11-14 04:14:00+00:00,208.0,19.23,211.0,22.93,12.33,47.59359,-54.27349
2021-11-14 04:24:00+00:00,205.0,18.15,213.0,22.13,12.33,47.59359,-54.27349
2021-11-14 04:34:00+00:00,212.0,20.37,208.0,24.91,12.33,47.59359,-54.27349
2021-11-14 04:44:00+00:00,207.0,18.39,216.0,23.86,12.33,47.59359,-54.27349
2021-11-14 04:54:00+00:00,205.0,19.45,212.0,23.51,12.33,47.59359,-54.27349
2021-11-14 05:04:00+00:00,210.0,19.46,221.0,24.21,12.33,47.59359,-54.27349
2021-11-14 05:14:01+00:00,211.0,19.82,219.0,24.61,12.33,47.59359,-54.27349
2021-11-14 05:24:01+00:00,215.0,19.56,216.0,24.23,12.33,47.59359,-54.27349
2021-11-14 05:34:01+00:00,209.0,16.87,215.0,20.41,12.33,47.59359,-54.27349
2021-11-14 05:44:01+00:00,214.0,20.28,220.0,23.71,12.33,47.59359,-54.27349
2021-11-14 05:54:01+00:00,208.0,15.67,210.0,20.66,12.33,47.59359,-54.27349
2021-11-14 06:04:01+00:00,217.0,16.81,232.0,21.07,12.33,47.59359,-54.27349
2021-11-14 06:14:01+00:00,212.0,12.92,205.0,15.01,12.33,47.59359,-54.27349
2021-11-14 06:24:01+00:00,218.0,14.9,227.0,18.41,12.33,47.59359,-54.27349
2021-11-14 06:34:01+00:00,212.0,14.44,222.0,18.47,12.33,47.59359,-54.27349
2021-11-14 06:44:01+00:00,211.0,14.63,218.0,18.03,12.33,47.59359,-54.27349
2021-11-14 06:54:01+00:00,214.0,13.8,215.0,16.73,12.33,47.59359,-54.27349
2021-11-14 07:04:01+00:00,213.0,13.47,222.0,16.68,12.33,47.59359,-54.27349
2021-11-14 07:14:00+00:00,220.0,13.52,225.0,16.78,12.33,47.59359,-54.27349
2021-11-14 07:24:00+00:00,222.0,11.32,219.0,13.04,12.33,47.59359,-54.27349
2021-11-14 07:34:00+00:00,227.0,11.37,237.0,14.36,12.33,47.59359,-54.27349
2021-11-14 07:44:00+00:00,225.0,10.23,227.0,12.16,12.33,47.59359,-54.27349
2021-11-14 07:54:00+00:00,221.0,10.68,229.0,14.04,12.33,47.59359,-54.27349
2021-11-14 08:04:00+00:00,224.0,10.27,229.0,12.38,12.33,47.59359,-54.27349
2021-11-14 08:14:00+00:00,224.0,11.13,223.0,12.44,12.33,47.59359,-54.27349
2021-11-14 08:24:00+00:00,230.0,10.08,232.0,11.2,12.33,47.59359,-54.27349
2021-11-14 08:34:00+00:00,228.0,10.02,233.0,11.65,12.33,47.59359,-54.27349
2021-11-14 08:44:00+00:00,238.0,10.58,237.0,12.31,12.33,47.59359,-54.27349
2021-11-14 08:54:00+00:00,241.0,9.76,243.0,11.69,12.33,47.59359,-54.27349
2021-11-14 09:04:00+00:00,273.0,8.96,272.0,10.7,12.33,47.59359,-54.27349
2021-11-14 09:14:00+00:00,261.0,9.72,261.0,10.43,12.33,47.59359,-54.27349
2021-11-14 09:24:00+00:00,248.0,6.69,252.0,8.56,12.33,47.59359,-54.27349
2021-11-14 09:34:00+00:00,232.0,4.79,231.0,6.31,12.33,47.59359,-54.27349
2021-11-14 09:44:00+00:00,229.0,6.52,229.0,7.74,12.33,47.59359,-54.27349
2021-11-14 09:54:00+00:00,220.0,6.91,224.0,7.83,12.33,47.59359,-54.27349
2021-11-14 10:04:00+00:00,215.0,6.87,221.0,8.02,12.33,47.59359,-54.27349
2021-11-14 10:14:00+00:00,213.0,6.74,208.0,7.53,12.33,47.59359,-54.27349
2021-11-14 10:24:00+00:00,216.0,5.69,217.0,6.34,12.33,47.59359,-54.27349
2021-11-14 10:34:00+00:00,225.0,8.25,222.0,10.2,12.33,47.59359,-54.27349
2021-11-14 10:44:00+00:00,219.0,6.28,231.0,7.24,12.33,47.59359,-54.27349
2021-11-14 10:54:00+00:00,216.0,6.18,214.0,6.92,12.33,47.59359,-54.27349
2021-11-14 11:04:00+00:00,212.0,6.65,212.0,7.58,12.33,47.59359,-54.27349
2021-11-14 11:14:00+00:00,209.0,7.18,211.0,8.1,12.33,47.59359,-54.27349
2021-11-14 11:24:00+00:00,210.0,7.93,207.0,8.93,12.33,47.59359,-54.27349
2021-11-14 11:34:00+00:00,212.0,6.66,212.0,8.17,12.33,47.59359,-54.27349
2021-11-14 11:44:00+00:00,208.0,8.29,206.0,9.29,12.33,47.59359,-54.27349
2021-11-14 11:54:00+00:00,201.0,8.75,204.0,9.67,12.33,47.59359,-54.27349
2021-11-14 12:04:00+00:00,214.0,9.59,222.0,10.89,12.33,47.59359,-54.27349
2021-11-14 12:14:00+00:00,210.0,10.41,220.0,12.25,12.41,47.59359,-54.27349
2021-11-14 12:24:00+00:00,210.0,8.34,203.0,9.69,12.41,47.59359,-54.27349
2021-11-14 12:34:00+00:00,220.0,8.91,226.0,10.29,12.41,47.59359,-54.27349
2021-11-14 12:44:00+00:00,219.0,7.36,227.0,8.19,12.41,47.59359,-54.27349
2021-11-14 12:54:00+00:00,219.0,7.07,216.0,8.03,12.41,47.59359,-54.27349
2021-11-14 13:04:00+00:00,216.0,6.67,215.0,7.41,12.41,47.59359,-54.27349
2021-11-14 13:14:01+00:00,216.0,7.06,219.0,7.77,12.49,47.59359,-54.27349
2021-11-14 13:24:01+00:00,219.0,6.79,220.0,7.49,12.49,47.59359,-54.27349
2021-11-14 13:34:01+00:00,218.0,6.4,217.0,7.13,12.49,47.59359,-54.27349
2021-11-14 13:44:01+00:00,209.0,6.85,209.0,7.56,12.49,47.59359,-54.27349
2021-11-14 13:54:01+00:00,209.0,6.49,209.0,7.07,12.49,47.59359,-54.27349
2021-11-14 14:04:01+00:00,202.0,6.91,207.0,7.38,12.49,47.59359,-54.27349
2021-11-14 14:14:01+00:00,206.0,6.88,207.0,8.03,12.81,47.59359,-54.27349
2021-11-14 14:24:01+00:00,212.0,7.72,213.0,7.73,12.81,47.59359,-54.27349
2021-11-14 14:34:01+00:00,315.0,0.01,213.0,0.0,12.81,47.59359,-54.27349
2021-11-14 14:44:01+00:00,203.0,6.47,203.0,6.96,12.81,47.59359,-54.27349
2021-11-14 14:54:01+00:00,205.0,7.0,205.0,7.95,12.81,47.59359,-54.27349
2021-11-14 15:04:01+00:00,204.0,8.32,204.0,9.51,12.81,47.59359,-54.27349
2021-11-14 15:14:01+00:00,210.0,8.11,209.0,9.07,13.21,47.59359,-54.27349
2021-11-14 15:24:01+00:00,210.0,7.88,211.0,9.04,13.21,47.59359,-54.27349
2021-11-14 15:34:01+00:00,208.0,7.67,208.0,8.29,13.21,47.59359,-54.27349
2021-11-14 15:44:01+00:00,210.0,7.59,212.0,8.4,13.21,47.59359,-54.27349
2021-11-14 15:54:01+00:00,212.0,8.08,210.0,8.94,13.21,47.59359,-54.27349
2021-11-14 16:04:01+00:00,209.0,8.2,209.0,9.01,13.21,47.59359,-54.27349
2021-11-14 16:14:00+00:00,208.0,8.51,206.0,9.48,13.13,47.59359,-54.27349
2021-11-14 16:24:00+00:00,207.0,7.87,209.0,8.7,13.13,47.59359,-54.27349
2021-11-14 16:34:00+00:00,210.0,7.95,209.0,8.66,13.13,47.59359,-54.27349
2021-11-14 16:44:00+00:00,208.0,7.57,206.0,8.41,13.13,47.59359,-54.27349
2021-11-14 16:54:00+00:00,211.0,9.11,212.0,10.26,13.13,47.59359,-54.27349
2021-11-14 17:04:00+00:00,212.0,11.12,215.0,12.61,13.13,47.59359,-54.27349
2021-11-14 17:14:01+00:00,209.0,9.49,203.0,10.75,13.21,47.59359,-54.27349
2021-11-14 17:24:01+00:00,211.0,9.41,208.0,10.49,13.21,47.59359,-54.27349
2021-11-14 17:34:01+00:00,208.0,11.02,208.0,12.21,13.21,47.59359,-54.27349
2021-11-14 17:44:01+00:00,209.0,11.57,208.0,13.07,13.21,47.59359,-54.27349
2021-11-14 17:54:01+00:00,208.0,10.0,212.0,11.23,13.21,47.59359,-54.27349
2021-11-14 18:04:01+00:00,210.0,10.02,207.0,11.51,13.21,47.59359,-54.27349
2021-11-14 18:14:00+00:00,211.0,14.23,212.0,16.21,13.05,47.59359,-54.27349
2021-11-14 18:24:00+00:00,213.0,12.26,218.0,13.64,13.05,47.59359,-54.27349
2021-11-14 18:34:00+00:00,215.0,9.52,214.0,11.06,13.05,47.59359,-54.27349
2021-11-14 18:44:00+00:00,213.0,10.94,215.0,12.71,13.05,47.59359,-54.27349
2021-11-14 18:54:00+00:00,217.0,9.16,214.0,10.52,13.05,47.59359,-54.27349
2021-11-14 19:04:00+00:00,228.0,9.6,220.0,11.49,13.05,47.59359,-54.27349
2021-11-14 19:14:00+00:00,230.0,10.47,232.0,12.91,12.81,47.59359,-54.27349
2021-11-14 19:24:00+00:00,234.0,9.98,233.0,11.59,12.81,47.59359,-54.27349
2021-11-14 19:34:00+00:00,232.0,10.63,238.0,12.52,12.81,47.59359,-54.27349
2021-11-14 19:44:00+00:00,236.0,9.52,235.0,11.27,12.81,47.59359,-54.27349
2021-11-14 19:54:00+00:00,234.0,10.05,242.0,11.62,12.81,47.59359,-54.27349
2021-11-14 20:04:00+00:00,232.0,10.77,230.0,12.1,12.81,47.59359,-54.27349
2021-11-14 20:14:01+00:00,230.0,12.18,231.0,14.33,12.65,47.59359,-54.27349
2021-11-14 20:24:01+00:00,230.0,10.84,230.0,12.64,12.65,47.59359,-54.27349
2021-11-14 20:34:01+00:00,229.0,10.35,221.0,11.74,12.65,47.59359,-54.27349
2021-11-14 20:44:01+00:00,228.0,10.07,233.0,11.4,12.65,47.59359,-54.27349
2021-11-14 20:54:01+00:00,226.0,10.15,222.0,12.21,12.65,47.59359,-54.27349
2021-11-14 21:04:01+00:00,224.0,10.4,230.0,12.7,12.65,47.59359,-54.27349
2021-11-14 21:14:00+00:00,226.0,10.26,219.0,13.11,12.65,47.59359,-54.27349
2021-11-14 21:24:00+00:00,228.0,10.32,234.0,12.21,12.65,47.59359,-54.27349
2021-11-14 21:34:00+00:00,227.0,10.91,228.0,13.19,12.65,47.59359,-54.27349
2021-11-14 21:44:00+00:00,225.0,12.91,220.0,14.98,12.65,47.59359,-54.27349
2021-11-14 21:54:00+00:00,222.0,12.0,220.0,13.45,12.65,47.59359,-54.27349
2021-11-14 22:04:00+00:00,223.0,10.76,217.0,12.4,12.65,47.59359,-54.27349
2021-11-14 22:14:01+00:00,227.0,12.19,225.0,13.98,12.57,47.59359,-54.27349
2021-11-14 22:24:01+00:00,221.0,11.91,223.0,14.24,12.57,47.59359,-54.27349
2021-11-14 22:34:01+00:00,228.0,12.34,228.0,15.05,12.57,47.59359,-54.27349
2021-11-14 22:44:01+00:00,229.0,12.0,216.0,14.16,12.57,47.59359,-54.27349
2021-11-14 22:54:01+00:00,229.0,12.22,230.0,14.31,12.57,47.59359,-54.27349
2021-11-14 23:04:01+00:00,234.0,12.79,230.0,15.29,12.57,47.59359,-54.27349
2021-11-14 23:14:00+00:00,230.0,11.2,237.0,13.35,12.57,47.59359,-54.27349
2021-11-14 23:24:00+00:00,236.0,11.07,234.0,12.83,12.57,47.59359,-54.27349
2021-11-14 23:34:00+00:00,237.0,10.77,241.0,12.69,12.57,47.59359,-54.27349
2021-11-14 23:44:00+00:00,234.0,10.57,229.0,12.61,12.57,47.59359,-54.27349
2021-11-14 23:54:00+00:00,233.0,9.36,232.0,11.28,12.57,47.59359,-54.27349
